Showing default

XCUBE-1, 62400

Orbit data source: Space-Track

XCUBE-1, 62400 is an American payload satellite in LEO that was launched on Sat, 21 Dec 2024 UTC via an FALCON 9 launch vehicle from the Air Force Western Test Range (AFWTR). Payload-class satellites include a variety of spacecraft equipped with specific instruments for various scientific and technological missions. These include communications satellites like Starlink; space stations such as the ISS; scientific satellites like the Hubble; Earth observation satellites from companies like Planet Labs, Umbra, and HawkEye 360; GPS; miniature CubeSats for education and research; and military/defense satellites.

Loading next visibility...
Identifier
62400, 2024-247Z
Orbit
LEO
Country
Flag of USUS
Related business
Manufacturer
EXOBOT
Mission
Operational Commercial Technology
Bus & Motor
CUBESAT 6U, Unknown motor
Mass
12 kg wet, 12 kg dry
Launch date (UTC)
2024-12-21 (9 months ago)
Launch vehicle
FALCON 9
Launch site
Air Force Western Test Range (AFWTR)
Object type
Payload
Rocket body
Debris
Shape & HBR
Box + 2 Pan, 0.6 m
Radar Cross Section
0.138 m², Small (<0.1 m²)

Expand to show TLE details & history
Last TLE update: 23 hours ago

TLE from 23 hours ago
0 XCUBE-1
1 62400U 24247Z   25260.26840528  .00006379  00000-0  27084-3 0  9990
2 62400  44.9933 341.1356 0003522  13.0715 347.0257 15.23888974 41242
Epoch: 2025-09-17T06:26Z
TLE epoch observation values (Epoch: 2025-09-17T06:26:30.216Z)
Latitude
-0.00002°
Longitude
-111.93711°
Altitude
491.763 km
Speed
7.622 km/s
True Right ascension
22h 44m 32s
True Declination
0° 00' 00"
Sunlit
Object was in full shadow at epoch
Visualization orbit readout
Latitude
Unknown
Longitude
Unknown
Altitude
Unknown
Speed
Unknown
Apparent Right ascension
Unknown
Apparent Declination
Unknown
Sunlit
N/A
Visualization observer readout
Local Sidereal Time
21:57:55
Azimuth
Unknown
Elevation
Unknown
Doppler factor
Unknown
Orbital elements
Apogee altitude
498.152 km
Perigee altitude
493.31 km
Semi-major axis
6,873.868 km
Eccentricity
0.00035
Inclination
44.9933°
RAAN
341.1356°
Arg. of periapsis
13.0715°
True anomaly
347.01663°
Mean anomaly
347.0257°
Eccentric anomaly
347.02117°
Mean motion
3.80839 °/min
Orbital period
94.53 mins
BSTAR
0.00027084
Loading maneuver chart data...
Computing Atmospheric mass density...
Loading historical data...
Loading historical data...
Loading historical data...
Loading historical data...
Loading historical data...
Loading historical data...
Loading historical data...

Documentation

Showing up to 5 results
|